DECAYED
Showing default

HADES-R, 62690 (Decayed)

Orbit data source: Space-Track

HADES-R, 62690 was a Spanish payload satellite in LEO that was launched on Tue, 14 Jan 2025 UTC via an FALCON 9 launch vehicle from the Air Force Western Test Range (AFWTR). Payload-class satellites include a variety of spacecraft equipped with specific instruments for various scientific and technological missions. These include communications satellites like Starlink; space stations such as the ISS; scientific satellites like the Hubble; Earth observation satellites from companies like Planet Labs, Umbra, and HawkEye 360; GPS; miniature CubeSats for education and research; and military/defense satellites.

Not visible in the next 10 days
Identifier
62690, 2025-009CK
Orbit
Decayed
Country
Flag of ESES / SPN
Related business
Manufacturer
AMEA/HYDRA
Mission
Decayed Amateur Communications
Bus & Motor
POCKETQUBE 1.5P, Unknown motor
Mass
0.375 kg wet, 0.25 kg dry
Launch date (UTC)
2025-01-14 (2 years ago)
Launch vehicle
FALCON 9
Launch site
Air Force Western Test Range (AFWTR)
Object type
Payload
Rocket body
Debris
Shape & HBR
Box, 0.1 m
Radar Cross Section
0.005 m², Medium (>0.1 m² and < 1m²)

Expand to show TLE details & history
Last TLE update: 7 months ago

TLE from 7 months ago
0 HADES-R
1 62690U 25009CK  26032.99082617  .05625566  23964-5  28010-2 0  9991
2 62690  97.3531 123.7793 0009683 299.0009  61.0309 16.20765875 58841
Epoch: 2026-02-01T23:46Z
TLE epoch observation values (Epoch: 2026-02-01T23:46:47.381Z)
Latitude
-0.00003°
Longitude
-5.11065°
Altitude
217.611 km
Speed
7.778 km/s
True Right ascension
08h 15m 07s
True Declination
0° 00' 00"
Sunlit
Object was in full shadow at epoch
Visualization orbit readout
Latitude
Unknown
Longitude
Unknown
Altitude
Unknown
Speed
Unknown
Apparent Right ascension
Unknown
Apparent Declination
Unknown
Sunlit
N/A
Visualization observer readout
Local Sidereal Time
09:34:04
Azimuth
Unknown
Elevation
Unknown
Doppler factor
Unknown
Orbital elements
Apogee altitude
220.687 km
Perigee altitude
207.92 km
Semi-major axis
6,592.441 km
Eccentricity
0.00097
Inclination
97.3531°
RAAN
123.7793°
Arg. of periapsis
299.0009°
True anomaly
61.12803°
Mean anomaly
61.0309°
Eccentric anomaly
61.07946°
Mean motion
4.05484 °/min
Orbital period
88.78 mins
BSTAR
0.002801
Loading maneuver chart data...
Computing Atmospheric mass density...
Loading historical data...
Loading historical data...
Loading historical data...
Loading historical data...
Loading historical data...
Loading historical data...
Loading historical data...

Documentation

Showing up to 5 results
|